Location: *
(39.6167°S, 171.5333°W)
Time: 04:30:55
(UTC+00:00)

NOSS 2-3 (E) - Pass Details

Date: 13 May 2021
Orbit: 557 x 1654 km, 63.4° (Epoch: 14 June)

Event Time Altitude Azimuth Distance (km) Brightness Sun altitude
Exits shadow 17:18:37 - 218° (SW) 3,236 6.8 -12.4°
Reaches altitude 10° 17:19:24 10° 219° (SW) 2,946 6.5 -12.3°
Maximum altitude 17:26:05 63° 297° (WNW) 974 4.3 -11.0°
Drops below altitude 10° 17:31:08 10° 18° (NNE) 2,231 6.9 -10.1°
Sets 17:33:13 0° 21° (NNE) 3,035 7.7 -9.7°
